Time,TemperatureF,DewpointF,PressureIn,WindDirection,WindDirectionDegrees,WindSpeedMPH,WindSpeedGustMPH,Humidity,HourlyPrecipIn,Conditions,Clouds,dailyrainin,SoftwareType,DateUTC
2013-01-21 00:06:00,34.9,28.1,30.25,SW,225,0.0,0.0,76,0.00,,,0.00,Wunderground v.1.15,2013-01-21 05:06:00,
2013-01-21 00:11:00,34.4,28.2,30.24,NW,317,0.0,0.0,78,0.00,,,0.00,Wunderground v.1.15,2013-01-21 05:11:00,
2013-01-21 00:16:00,34.3,28.2,30.24,West,278,0.0,0.0,78,0.00,,,0.00,Wunderground v.1.15,2013-01-21 05:16:00,
2013-01-21 00:21:00,34.4,28.2,30.24,West,276,0.0,0.0,78,0.00,,,0.00,Wunderground v.1.15,2013-01-21 05:21:00,
2013-01-21 00:26:00,34.5,28.3,30.24,West,276,0.0,0.0,78,0.00,,,0.00,Wunderground v.1.15,2013-01-21 05:26:00,
2013-01-21 00:31:00,34.7,28.5,30.24,ESE,122,0.0,0.0,78,0.00,,,0.00,Wunderground v.1.15,2013-01-21 05:31:00,
2013-01-21 00:36:00,34.6,28.4,30.23,WNW,287,0.0,0.0,78,0.00,,,0.00,Wunderground v.1.15,2013-01-21 05:36:00,
2013-01-21 00:46:00,34.5,28.3,30.23,WNW,283,0.0,0.0,78,0.00,,,0.00,Wunderground v.1.15,2013-01-21 05:46:00,
2013-01-21 00:51:00,34.6,28.4,30.23,WNW,283,0.0,0.0,78,0.00,,,0.00,Wunderground v.1.15,2013-01-21 05:51:00,
2013-01-21 01:01:00,34.6,28.4,30.23,WSW,243,0.0,0.0,78,0.00,,,0.00,Wunderground v.1.15,2013-01-21 06:01:00,
2013-01-21 01:06:00,34.6,28.4,30.23,WSW,243,0.0,0.0,78,0.00,,,0.00,Wunderground v.1.15,2013-01-21 06:06:00,
2013-01-21 01:16:00,34.1,28.3,30.23,WSW,243,0.0,0.0,79,0.00,,,0.00,Wunderground v.1.15,2013-01-21 06:16:00,
2013-01-21 01:21:00,33.9,28.4,30.23,West,262,0.0,0.0,80,0.00,,,0.00,Wunderground v.1.15,2013-01-21 06:21:00,
2013-01-21 01:26:00,33.3,28.1,30.23,West,264,0.0,0.0,81,0.00,,,0.00,Wunderground v.1.15,2013-01-21 06:26:00,
2013-01-21 01:36:00,33.5,28.3,30.23,West,265,0.0,0.0,81,0.00,,,0.00,Wunderground v.1.15,2013-01-21 06:36:00,
2013-01-21 01:41:00,34.0,28.5,30.23,West,269,0.0,0.0,80,0.00,,,0.00,Wunderground v.1.15,2013-01-21 06:41:00,
2013-01-21 01:51:00,34.0,28.5,30.23,WSW,248,0.0,0.0,80,0.00,,,0.00,Wunderground v.1.15,2013-01-21 06:51:00,
2013-01-21 01:56:00,34.0,28.5,30.23,WSW,245,0.0,0.0,80,0.00,,,0.00,Wunderground v.1.15,2013-01-21 06:56:00,
2013-01-21 02:01:00,34.1,28.3,30.23,WSW,245,0.0,0.0,79,0.00,,,0.00,Wunderground v.1.15,2013-01-21 07:01:00,
2013-01-21 02:11:00,33.6,28.4,30.23,West,264,0.0,0.0,81,0.00,,,0.00,Wunderground v.1.15,2013-01-21 07:11:00,
2013-01-21 02:16:00,33.3,28.1,30.23,West,266,0.0,0.0,81,0.00,,,0.00,Wunderground v.1.15,2013-01-21 07:16:00,
2013-01-21 02:21:00,33.1,28.2,30.23,WNW,288,0.0,0.0,82,0.00,,,0.00,Wunderground v.1.15,2013-01-21 07:21:00,
2013-01-21 02:31:00,32.8,27.9,30.23,WNW,299,0.0,1.0,82,0.00,,,0.00,Wunderground v.1.15,2013-01-21 07:31:00,
2013-01-21 02:36:00,32.9,28.0,30.23,SW,236,1.0,1.0,82,0.00,,,0.00,Wunderground v.1.15,2013-01-21 07:36:00,
2013-01-21 02:41:00,33.1,27.9,30.23,SW,236,1.0,1.0,81,0.00,,,0.00,Wunderground v.1.15,2013-01-21 07:41:00,
2013-01-21 02:51:00,33.4,28.2,30.23,West,260,0.0,0.0,81,0.00,,,0.00,Wunderground v.1.15,2013-01-21 07:51:00,
2013-01-21 02:56:00,33.5,28.0,30.23,West,260,0.0,0.0,80,0.00,,,0.00,Wunderground v.1.15,2013-01-21 07:56:00,
2013-01-21 03:06:00,33.5,28.0,30.23,NNW,329,0.0,2.0,80,0.00,,,0.00,Wunderground v.1.15,2013-01-21 08:06:00,
2013-01-21 03:11:00,33.6,28.1,30.23,SW,214,0.0,0.0,80,0.00,,,0.00,Wunderground v.1.15,2013-01-21 08:11:00,
2013-01-21 03:16:00,34.0,28.2,30.23,WNW,289,1.0,1.0,79,0.00,,,0.00,Wunderground v.1.15,2013-01-21 08:16:00,
2013-01-21 03:26:00,34.4,28.2,30.23,WSW,240,1.0,1.0,78,0.00,,,0.00,Wunderground v.1.15,2013-01-21 08:26:00,
2013-01-21 03:31:00,34.2,28.1,30.23,West,261,1.0,1.0,78,0.00,,,0.00,Wunderground v.1.15,2013-01-21 08:31:00,
2013-01-21 03:41:00,34.1,28.0,30.23,WNW,302,1.0,1.0,78,0.00,,,0.00,Wunderground v.1.15,2013-01-21 08:41:00,
2013-01-21 03:46:00,34.7,27.9,30.23,SW,225,1.0,1.0,76,0.00,,,0.00,Wunderground v.1.15,2013-01-21 08:46:00,
2013-01-21 03:51:00,34.8,28.0,30.23,WNW,290,0.0,1.0,76,0.00,,,0.00,Wunderground v.1.15,2013-01-21 08:51:00,
2013-01-21 04:01:00,34.3,27.8,30.23,NW,316,1.0,1.0,77,0.00,,,0.00,Wunderground v.1.15,2013-01-21 09:01:00,
2013-01-21 04:06:00,33.6,27.8,30.22,West,277,1.0,1.0,79,0.00,,,0.00,Wunderground v.1.15,2013-01-21 09:06:00,
2013-01-21 04:16:00,32.8,27.6,30.22,WNW,297,1.0,2.0,81,0.00,,,0.00,Wunderground v.1.15,2013-01-21 09:16:00,
2013-01-21 04:21:00,33.2,27.7,30.22,West,266,1.0,1.0,80,0.00,,,0.00,Wunderground v.1.15,2013-01-21 09:21:00,
2013-01-21 04:26:00,34.2,27.7,30.22,WSW,246,1.0,1.0,77,0.00,,,0.00,Wunderground v.1.15,2013-01-21 09:26:00,
2013-01-21 04:36:00,35.3,27.8,30.22,West,270,0.0,1.0,74,0.00,,,0.00,Wunderground v.1.15,2013-01-21 09:36:00,
2013-01-21 04:41:00,35.3,27.5,30.22,West,281,0.0,0.0,73,0.00,,,0.00,Wunderground v.1.15,2013-01-21 09:41:00,
2013-01-21 04:51:00,35.3,27.5,30.21,SW,214,1.0,1.0,73,0.00,,,0.00,Wunderground v.1.15,2013-01-21 09:51:00,
2013-01-21 04:56:00,35.0,26.9,30.21,SSW,212,0.0,1.0,72,0.00,,,0.00,Wunderground v.1.15,2013-01-21 09:56:00,
2013-01-21 05:01:00,34.6,26.8,30.21,WSW,243,0.0,2.0,73,0.00,,,0.00,Wunderground v.1.15,2013-01-21 10:01:00,
2013-01-21 05:11:00,34.4,27.0,30.21,SW,214,1.0,1.0,74,0.00,,,0.00,Wunderground v.1.15,2013-01-21 10:11:00,
2013-01-21 05:16:00,34.6,26.8,30.21,West,260,1.0,1.0,73,0.00,,,0.00,Wunderground v.1.15,2013-01-21 10:16:00,
2013-01-21 05:26:00,34.6,26.8,30.21,SSW,194,0.0,1.0,73,0.00,,,0.00,Wunderground v.1.15,2013-01-21 10:26:00,
2013-01-21 05:31:00,34.7,26.9,30.21,WNW,295,1.0,1.0,73,0.00,,,0.00,Wunderground v.1.15,2013-01-21 10:31:00,
2013-01-21 05:41:00,34.8,27.0,30.21,NW,324,1.0,1.0,73,0.00,,,0.00,Wunderground v.1.15,2013-01-21 10:41:00,
2013-01-21 05:46:00,34.4,27.0,30.21,WSW,253,0.0,1.0,74,0.00,,,0.00,Wunderground v.1.15,2013-01-21 10:46:00,
2013-01-21 05:51:00,34.5,26.7,30.21,WNW,293,0.0,0.0,73,0.00,,,0.00,Wunderground v.1.15,2013-01-21 10:51:00,
2013-01-21 06:01:00,34.8,27.0,30.21,West,274,1.0,1.0,73,0.00,,,0.00,Wunderground v.1.15,2013-01-21 11:01:00,
2013-01-21 06:06:00,34.8,27.0,30.21,WSW,250,0.0,1.0,73,0.00,,,0.00,Wunderground v.1.15,2013-01-21 11:06:00,
2013-01-21 06:16:00,33.7,26.6,30.21,WNW,284,0.0,0.0,75,0.00,,,0.00,Wunderground v.1.15,2013-01-21 11:16:00,
2013-01-21 06:21:00,33.3,26.5,30.21,WSW,245,0.0,0.0,76,0.00,,,0.00,Wunderground v.1.15,2013-01-21 11:21:00,
2013-01-21 06:26:00,33.3,26.5,30.21,West,267,0.0,0.0,76,0.00,,,0.00,Wunderground v.1.15,2013-01-21 11:26:00,
2013-01-21 06:36:00,33.8,26.4,30.21,West,267,0.0,0.0,74,0.00,,,0.00,Wunderground v.1.15,2013-01-21 11:36:00,
2013-01-21 06:41:00,34.1,26.7,30.21,West,268,0.0,0.0,74,0.00,,,0.00,Wunderground v.1.15,2013-01-21 11:41:00,
2013-01-21 06:51:00,34.5,26.7,30.21,West,267,0.0,0.0,73,0.00,,,0.00,Wunderground v.1.15,2013-01-21 11:51:00,
2013-01-21 06:56:00,34.3,26.5,30.21,West,276,0.0,0.0,73,0.00,,,0.00,Wunderground v.1.15,2013-01-21 11:56:00,
2013-01-21 07:01:00,34.0,26.3,30.21,West,276,0.0,0.0,73,0.00,,,0.00,Wunderground v.1.15,2013-01-21 12:01:00,
2013-01-21 07:06:00,33.9,26.5,30.21,West,270,0.0,0.0,74,0.00,,,0.00,Wunderground v.1.15,2013-01-21 12:06:00,
2013-01-21 07:16:00,33.6,26.2,30.21,West,274,1.0,1.0,74,0.00,,,0.00,Wunderground v.1.15,2013-01-21 12:16:00,
2013-01-21 07:26:00,33.2,26.1,30.21,West,274,0.0,1.0,75,0.00,,,0.00,Wunderground v.1.15,2013-01-21 12:26:00,
2013-01-21 07:31:00,32.7,26.0,30.21,West,259,0.0,1.0,76,0.00,,,0.00,Wunderground v.1.15,2013-01-21 12:31:00,
2013-01-21 07:36:00,32.5,26.1,30.21,West,260,0.0,1.0,77,0.00,,,0.00,Wunderground v.1.15,2013-01-21 12:36:00,
2013-01-21 07:41:00,32.5,26.1,30.21,West,262,0.0,0.0,77,0.00,,,0.00,Wunderground v.1.15,2013-01-21 12:41:00,
2013-01-21 07:51:00,32.8,26.1,30.21,West,281,1.0,1.0,76,0.00,,,0.00,Wunderground v.1.15,2013-01-21 12:51:00,
2013-01-21 07:56:00,33.0,26.3,30.21,NW,306,1.0,1.0,76,0.00,,,0.00,Wunderground v.1.15,2013-01-21 12:56:00,
2013-01-21 08:06:00,31.9,26.1,30.21,WNW,294,0.0,0.0,79,0.00,,,0.00,Wunderground v.1.15,2013-01-21 13:06:00,
2013-01-21 08:11:00,31.2,25.7,30.21,NW,307,1.0,2.0,80,0.00,,,0.00,Wunderground v.1.15,2013-01-21 13:11:00,
2013-01-21 08:16:00,31.1,26.0,30.21,NW,311,1.0,2.0,81,0.00,,,0.00,Wunderground v.1.15,2013-01-21 13:16:00,
2013-01-21 08:26:00,31.4,26.2,30.22,NW,312,0.0,1.0,81,0.00,,,0.00,Wunderground v.1.15,2013-01-21 13:26:00,
2013-01-21 08:31:00,31.6,26.4,30.22,NW,319,1.0,1.0,81,0.00,,,0.00,Wunderground v.1.15,2013-01-21 13:31:00,
2013-01-21 08:41:00,32.5,26.7,30.22,NW,320,0.0,0.0,79,0.00,,,0.00,Wunderground v.1.15,2013-01-21 13:41:00,
2013-01-21 08:46:00,32.8,27.0,30.22,NW,323,0.0,0.0,79,0.00,,,0.00,Wunderground v.1.15,2013-01-21 13:46:00,
2013-01-21 08:51:00,33.1,27.3,30.22,NW,316,1.0,1.0,79,0.00,,,0.00,Wunderground v.1.15,2013-01-21 13:51:00,
2013-01-21 09:01:00,34.0,27.2,30.22,NW,323,1.0,1.0,76,0.00,,,0.00,Wunderground v.1.15,2013-01-21 14:01:00,
2013-01-21 09:06:00,34.4,27.6,30.23,NW,323,1.0,1.0,76,0.00,,,0.00,Wunderground v.1.15,2013-01-21 14:06:00,
2013-01-21 09:16:00,35.1,27.6,30.23,NW,321,1.0,1.0,74,0.00,,,0.00,Wunderground v.1.15,2013-01-21 14:16:00,
2013-01-21 09:21:00,35.5,27.7,30.23,NNW,330,1.0,1.0,73,0.00,,,0.00,Wunderground v.1.15,2013-01-21 14:21:00,
2013-01-21 09:31:00,36.9,27.3,30.23,NW,326,0.0,0.0,68,0.00,,,0.00,Wunderground v.1.15,2013-01-21 14:31:00,
2013-01-21 09:36:00,38.2,27.8,30.24,NNW,329,0.0,0.0,66,0.00,,,0.00,Wunderground v.1.15,2013-01-21 14:36:00,
2013-01-21 09:41:00,38.6,28.6,30.24,WSW,254,1.0,1.0,67,0.00,,,0.00,Wunderground v.1.15,2013-01-21 14:41:00,
2013-01-21 09:51:00,38.5,29.2,30.24,NNW,335,1.0,1.0,69,0.00,,,0.00,Wunderground v.1.15,2013-01-21 14:51:00,
2013-01-21 09:56:00,39.1,29.1,30.24,NE,44,0.0,3.0,67,0.00,,,0.00,Wunderground v.1.15,2013-01-21 14:56:00,
2013-01-21 10:06:00,39.9,27.1,30.24,North,356,2.0,3.0,60,0.00,,,0.00,Wunderground v.1.15,2013-01-21 15:06:00,
2013-01-21 10:11:00,40.1,26.9,30.24,NNW,330,2.0,2.0,59,0.00,,,0.00,Wunderground v.1.15,2013-01-21 15:11:00,
2013-01-21 10:16:00,40.2,27.4,30.24,NNW,332,2.0,3.0,60,0.00,,,0.00,Wunderground v.1.15,2013-01-21 15:16:00,
2013-01-21 10:26:00,40.2,26.6,30.24,WNW,300,3.0,4.0,58,0.00,,,0.00,Wunderground v.1.15,2013-01-21 15:26:00,
2013-01-21 10:31:00,40.3,26.7,30.23,NNE,20,3.0,3.0,58,0.00,,,0.00,Wunderground v.1.15,2013-01-21 15:31:00,
2013-01-21 10:41:00,40.4,26.4,30.23,NE,45,3.0,3.0,57,0.00,,,0.00,Wunderground v.1.15,2013-01-21 15:41:00,
2013-01-21 10:46:00,40.9,27.2,30.23,NNE,28,3.0,3.0,58,0.00,,,0.00,Wunderground v.1.15,2013-01-21 15:46:00,
2013-01-21 10:51:00,41.3,26.8,30.23,NE,41,2.0,5.0,56,0.00,,,0.00,Wunderground v.1.15,2013-01-21 15:51:00,
2013-01-21 11:01:00,41.3,26.8,30.24,North,6,4.0,6.0,56,0.00,,,0.00,Wunderground v.1.15,2013-01-21 16:01:00,
2013-01-21 11:06:00,41.5,27.0,30.24,WNW,300,4.0,6.0,56,0.00,,,0.00,Wunderground v.1.15,2013-01-21 16:06:00,
2013-01-21 11:16:00,41.9,27.3,30.23,NE,45,4.0,4.0,56,0.00,,,0.00,Wunderground v.1.15,2013-01-21 16:16:00,
2013-01-21 11:21:00,42.3,26.8,30.23,NNE,30,3.0,4.0,54,0.00,,,0.00,Wunderground v.1.15,2013-01-21 16:21:00,
2013-01-21 11:26:00,42.6,28.4,30.23,NNW,345,3.0,4.0,57,0.00,,,0.00,Wunderground v.1.15,2013-01-21 16:26:00,
2013-01-21 11:36:00,43.3,27.8,30.23,North,357,2.0,3.0,54,0.00,,,0.00,Wunderground v.1.15,2013-01-21 16:36:00,
2013-01-21 11:41:00,43.5,27.5,30.22,NE,34,1.0,2.0,53,0.00,,,0.00,Wunderground v.1.15,2013-01-21 16:41:00,
2013-01-21 11:51:00,44.2,28.1,30.21,NW,316,1.0,1.0,53,0.00,,,0.00,Wunderground v.1.15,2013-01-21 16:51:00,
2013-01-21 11:56:00,44.7,28.1,30.21,SE,131,1.0,3.0,52,0.00,,,0.00,Wunderground v.1.15,2013-01-21 16:56:00,
2013-01-21 12:01:00,45.4,27.8,30.20,North,356,1.0,1.0,50,0.00,,,0.00,Wunderground v.1.15,2013-01-21 17:01:00,
2013-01-21 12:11:00,45.7,27.6,30.19,SE,127,1.0,1.0,49,0.00,,,0.00,Wunderground v.1.15,2013-01-21 17:11:00,
2013-01-21 12:16:00,46.3,28.2,30.19,West,266,0.0,1.0,49,0.00,,,0.00,Wunderground v.1.15,2013-01-21 17:16:00,
2013-01-21 12:26:00,47.2,28.5,30.18,ESE,107,0.0,2.0,48,0.00,,,0.00,Wunderground v.1.15,2013-01-21 17:26:00,
2013-01-21 12:31:00,47.3,27.5,30.18,NE,41,1.0,1.0,46,0.00,,,0.00,Wunderground v.1.15,2013-01-21 17:31:00,
2013-01-21 12:36:00,47.4,28.2,30.17,SSE,167,1.0,1.0,47,0.00,,,0.00,Wunderground v.1.15,2013-01-21 17:36:00,
2013-01-21 12:46:00,48.0,28.7,30.16,SSE,166,0.0,1.0,47,0.00,,,0.00,Wunderground v.1.15,2013-01-21 17:46:00,
2013-01-21 12:51:00,48.1,28.3,30.16,ESE,107,0.0,0.0,46,0.00,,,0.00,Wunderground v.1.15,2013-01-21 17:51:00,
2013-01-21 13:01:00,48.9,28.5,30.15,ESE,115,0.0,0.0,45,0.00,,,0.00,Wunderground v.1.15,2013-01-21 18:01:00,
2013-01-21 13:06:00,48.7,28.8,30.15,NE,43,0.0,0.0,46,0.00,,,0.00,Wunderground v.1.15,2013-01-21 18:06:00,
2013-01-21 13:16:00,49.6,28.6,30.14,NE,53,0.0,0.0,44,0.00,,,0.00,Wunderground v.1.15,2013-01-21 18:16:00,
2013-01-21 13:21:00,49.6,27.4,30.14,NE,48,1.0,1.0,42,0.00,,,0.00,Wunderground v.1.15,2013-01-21 18:21:00,
2013-01-21 13:26:00,49.4,27.8,30.14,North,8,1.0,1.0,43,0.00,,,0.00,Wunderground v.1.15,2013-01-21 18:26:00,
2013-01-21 13:36:00,49.5,29.0,30.14,NNW,342,1.0,2.0,45,0.00,,,0.00,Wunderground v.1.15,2013-01-21 18:36:00,
2013-01-21 13:41:00,49.9,29.4,30.14,SSE,165,1.0,3.0,45,0.00,,,0.00,Wunderground v.1.15,2013-01-21 18:41:00,
2013-01-21 13:51:00,50.7,29.0,30.13,East,82,1.0,1.0,43,0.00,,,0.00,Wunderground v.1.15,2013-01-21 18:51:00,
2013-01-21 13:56:00,50.9,29.2,30.13,SE,134,1.0,1.0,43,0.00,,,0.00,Wunderground v.1.15,2013-01-21 18:56:00,
2013-01-21 14:01:00,51.3,28.4,30.13,NNW,346,0.0,0.0,41,0.00,,,0.00,Wunderground v.1.15,2013-01-21 19:01:00,
2013-01-21 14:11:00,51.2,29.4,30.12,NW,326,0.0,3.0,43,0.00,,,0.00,Wunderground v.1.15,2013-01-21 19:11:00,
2013-01-21 14:16:00,51.0,28.1,30.13,ENE,75,1.0,3.0,41,0.00,,,0.00,Wunderground v.1.15,2013-01-21 19:16:00,
2013-01-21 14:26:00,50.8,27.9,30.12,NNW,335,1.0,1.0,41,0.00,,,0.00,Wunderground v.1.15,2013-01-21 19:26:00,
2013-01-21 14:31:00,50.8,27.9,30.12,NNW,344,1.0,2.0,41,0.00,,,0.00,Wunderground v.1.15,2013-01-21 19:31:00,
2013-01-21 14:41:00,51.3,27.2,30.12,SSE,165,1.0,1.0,39,0.00,,,0.00,Wunderground v.1.15,2013-01-21 19:41:00,
2013-01-21 14:46:00,51.4,27.9,30.12,SE,145,1.0,1.0,40,0.00,,,0.00,Wunderground v.1.15,2013-01-21 19:46:00,